Year,Month,Day,Hour,Minute,Value (Times are PST for temperature in C)
2016,08,25,00,00,18.20
2016,08,25,00,01,18.20
2016,08,25,00,02,18.10
2016,08,25,00,03,18.10
2016,08,25,00,04,18.00
2016,08,25,00,05,18.00
2016,08,25,00,06,17.90
2016,08,25,00,07,17.90
2016,08,25,00,08,17.90
2016,08,25,00,09,17.80
2016,08,25,00,10,17.80
2016,08,25,00,11,17.80
2016,08,25,00,12,17.80
2016,08,25,00,13,17.70
2016,08,25,00,14,17.70
2016,08,25,00,15,17.70
2016,08,25,00,16,17.60
2016,08,25,00,17,17.60
2016,08,25,00,18,17.60
2016,08,25,00,19,17.50
2016,08,25,00,20,17.50
2016,08,25,00,21,17.40
2016,08,25,00,22,17.40
2016,08,25,00,23,17.30
2016,08,25,00,24,17.30
2016,08,25,00,25,17.30
2016,08,25,00,26,17.20
2016,08,25,00,27,17.20
2016,08,25,00,28,17.20
2016,08,25,00,29,17.10
2016,08,25,00,30,17.10
2016,08,25,00,31,17.10
2016,08,25,00,32,17.00
2016,08,25,00,33,17.00
2016,08,25,00,34,16.90
2016,08,25,00,35,16.90
2016,08,25,00,36,16.90
2016,08,25,00,37,16.90
2016,08,25,00,38,16.80
2016,08,25,00,39,16.80
2016,08,25,00,40,16.80
2016,08,25,00,41,16.80
2016,08,25,00,42,16.80
2016,08,25,00,43,16.70
2016,08,25,00,44,16.70
2016,08,25,00,45,16.70
2016,08,25,00,46,16.70
2016,08,25,00,47,16.70
2016,08,25,00,48,16.60
2016,08,25,00,49,16.60
2016,08,25,00,50,16.60
2016,08,25,00,51,16.50
2016,08,25,00,52,16.50
2016,08,25,00,53,16.50
2016,08,25,00,54,16.50
2016,08,25,00,55,16.40
2016,08,25,00,56,16.40
2016,08,25,00,57,16.40
2016,08,25,00,58,16.40
2016,08,25,00,59,16.40
2016,08,25,01,00,16.30
2016,08,25,01,01,16.30
2016,08,25,01,02,16.30
2016,08,25,01,03,16.30
2016,08,25,01,04,16.30
2016,08,25,01,05,16.30
2016,08,25,01,06,16.30
2016,08,25,01,07,16.30
2016,08,25,01,08,16.20
2016,08,25,01,09,16.20
2016,08,25,01,10,16.20
2016,08,25,01,11,16.20
2016,08,25,01,12,16.10
2016,08,25,01,13,16.10
2016,08,25,01,14,16.10
2016,08,25,01,15,16.10
2016,08,25,01,16,16.00
2016,08,25,01,17,16.00
2016,08,25,01,18,16.00
2016,08,25,01,19,16.00
2016,08,25,01,20,15.90
2016,08,25,01,21,15.90
2016,08,25,01,22,15.90
2016,08,25,01,23,15.80
2016,08,25,01,24,15.80
2016,08,25,01,25,15.80
2016,08,25,01,26,15.80
2016,08,25,01,27,15.80
2016,08,25,01,28,15.80
2016,08,25,01,29,15.70
2016,08,25,01,30,15.70
2016,08,25,01,31,15.70
2016,08,25,01,32,15.70
2016,08,25,01,33,15.70
2016,08,25,01,34,15.70
2016,08,25,01,35,15.60
2016,08,25,01,36,15.60
2016,08,25,01,37,15.60
2016,08,25,01,38,15.60
2016,08,25,01,39,15.60
2016,08,25,01,40,15.60
2016,08,25,01,41,15.60
2016,08,25,01,42,15.60
2016,08,25,01,43,15.50
2016,08,25,01,44,15.50
2016,08,25,01,45,15.50
2016,08,25,01,46,15.50
2016,08,25,01,47,15.50
2016,08,25,01,48,15.50
2016,08,25,01,49,15.50
2016,08,25,01,50,15.40
2016,08,25,01,51,15.40
2016,08,25,01,52,15.40
2016,08,25,01,53,15.40
2016,08,25,01,54,15.40
2016,08,25,01,55,15.40
2016,08,25,01,56,15.40
2016,08,25,01,57,15.40
2016,08,25,01,58,15.40
2016,08,25,01,59,15.40
2016,08,25,02,00,15.40
2016,08,25,02,01,15.40
2016,08,25,02,02,15.40
2016,08,25,02,03,15.40
2016,08,25,02,04,15.40
2016,08,25,02,05,15.40
2016,08,25,02,06,15.40
2016,08,25,02,07,15.40
2016,08,25,02,08,15.40
2016,08,25,02,09,15.40
2016,08,25,02,10,15.50
2016,08,25,02,11,15.50
2016,08,25,02,12,15.50
2016,08,25,02,13,15.50
2016,08,25,02,14,15.50
2016,08,25,02,15,15.50
2016,08,25,02,16,15.50
2016,08,25,02,17,15.50
2016,08,25,02,18,15.40
2016,08,25,02,19,15.40
2016,08,25,02,20,15.40
2016,08,25,02,21,15.40
2016,08,25,02,22,15.40
2016,08,25,02,23,15.40
2016,08,25,02,24,15.40
2016,08,25,02,25,15.40
2016,08,25,02,26,15.40
2016,08,25,02,27,15.40
2016,08,25,02,28,15.40
2016,08,25,02,29,15.40
2016,08,25,02,30,15.40
2016,08,25,02,31,15.40
2016,08,25,02,32,15.40
2016,08,25,02,33,15.40
2016,08,25,02,34,15.40
2016,08,25,02,35,15.40
2016,08,25,02,36,15.40
2016,08,25,02,37,15.40
2016,08,25,02,38,15.40
2016,08,25,02,39,15.40
2016,08,25,02,40,15.40
2016,08,25,02,41,15.40
2016,08,25,02,42,15.40
2016,08,25,02,43,15.40
2016,08,25,02,44,15.40
2016,08,25,02,45,15.40
2016,08,25,02,46,15.40
2016,08,25,02,47,15.40
2016,08,25,02,48,15.40
2016,08,25,02,49,15.40
2016,08,25,02,50,15.40
2016,08,25,02,51,15.40
2016,08,25,02,52,15.40
2016,08,25,02,53,15.40
2016,08,25,02,54,15.40
2016,08,25,02,55,15.40
2016,08,25,02,56,15.40
2016,08,25,02,57,15.40
2016,08,25,02,58,15.40
2016,08,25,02,59,15.40
2016,08,25,03,00,15.40
2016,08,25,03,01,15.40
2016,08,25,03,02,15.40
2016,08,25,03,03,15.50
2016,08,25,03,04,15.50
2016,08,25,03,05,15.50
2016,08,25,03,06,15.50
2016,08,25,03,07,15.50
2016,08,25,03,08,15.60
2016,08,25,03,09,15.60
2016,08,25,03,10,15.60
2016,08,25,03,11,15.60
2016,08,25,03,12,15.60
2016,08,25,03,13,15.60
2016,08,25,03,14,15.70
2016,08,25,03,15,15.70
2016,08,25,03,16,15.70
2016,08,25,03,17,15.80
2016,08,25,03,18,15.80
2016,08,25,03,19,15.80
2016,08,25,03,20,15.80
2016,08,25,03,21,15.90
2016,08,25,03,22,15.90
2016,08,25,03,23,15.90
2016,08,25,03,24,16.00
2016,08,25,03,25,16.10
2016,08,25,03,26,16.10
2016,08,25,03,27,16.10
2016,08,25,03,28,16.20
2016,08,25,03,29,16.20
2016,08,25,03,30,16.20
2016,08,25,03,31,16.20
2016,08,25,03,32,16.20
2016,08,25,03,33,16.20
2016,08,25,03,34,16.20
2016,08,25,03,35,16.20
2016,08,25,03,36,16.20
2016,08,25,03,37,16.20
2016,08,25,03,38,16.20
2016,08,25,03,39,16.20
2016,08,25,03,40,16.20
2016,08,25,03,41,16.20
2016,08,25,03,42,16.20
2016,08,25,03,43,16.20
2016,08,25,03,44,16.20
2016,08,25,03,45,16.20
2016,08,25,03,46,16.20
2016,08,25,03,47,16.20
2016,08,25,03,48,16.20
2016,08,25,03,49,16.20
2016,08,25,03,50,16.20
2016,08,25,03,51,16.30
2016,08,25,03,52,16.30
2016,08,25,03,53,16.30
2016,08,25,03,54,16.40
2016,08,25,03,55,16.40
2016,08,25,03,56,16.40
2016,08,25,03,57,16.40
2016,08,25,03,58,16.50
2016,08,25,03,59,16.50
2016,08,25,04,00,16.50
2016,08,25,04,01,16.50
2016,08,25,04,02,16.60
2016,08,25,04,03,16.60
2016,08,25,04,04,16.60
2016,08,25,04,05,16.70
2016,08,25,04,06,16.70
2016,08,25,04,07,16.70
2016,08,25,04,08,16.70
2016,08,25,04,09,16.80
2016,08,25,04,10,16.80
2016,08,25,04,11,16.80
2016,08,25,04,12,16.80
2016,08,25,04,13,16.90
2016,08,25,04,14,16.90
2016,08,25,04,15,16.90
2016,08,25,04,16,16.80
2016,08,25,04,17,16.80
2016,08,25,04,18,16.80
2016,08,25,04,19,16.80
2016,08,25,04,20,16.80
2016,08,25,04,21,16.80
2016,08,25,04,22,16.80
2016,08,25,04,23,16.80
2016,08,25,04,24,16.80
2016,08,25,04,25,16.80
2016,08,25,04,26,16.80
2016,08,25,04,27,16.80
2016,08,25,04,28,16.70
2016,08,25,04,29,16.70
2016,08,25,04,30,16.70
2016,08,25,04,31,16.70
2016,08,25,04,32,16.70
2016,08,25,04,33,16.60
2016,08,25,04,34,16.60
2016,08,25,04,35,16.60
2016,08,25,04,36,16.60
2016,08,25,04,37,16.60
2016,08,25,04,38,16.60
2016,08,25,04,39,16.60
2016,08,25,04,40,16.60
2016,08,25,04,41,16.60
2016,08,25,04,42,16.60
2016,08,25,04,43,16.60
2016,08,25,04,44,16.50
2016,08,25,04,45,16.50
2016,08,25,04,46,16.50
2016,08,25,04,47,16.50
2016,08,25,04,48,16.40
2016,08,25,04,49,16.40
2016,08,25,04,50,16.40
2016,08,25,04,51,16.40
2016,08,25,04,52,16.30
2016,08,25,04,53,16.30
2016,08,25,04,54,16.30
2016,08,25,04,55,16.30
2016,08,25,04,56,16.20
2016,08,25,04,57,16.20
2016,08,25,04,58,16.10
2016,08,25,04,59,16.10
2016,08,25,05,00,16.00
2016,08,25,05,01,15.90
2016,08,25,05,02,15.90
2016,08,25,05,03,15.80
2016,08,25,05,04,15.80
2016,08,25,05,05,15.80
2016,08,25,05,06,15.70
2016,08,25,05,07,15.70
2016,08,25,05,08,15.70
2016,08,25,05,09,15.70
2016,08,25,05,10,15.70
2016,08,25,05,11,15.60
2016,08,25,05,12,15.60
2016,08,25,05,13,15.60
2016,08,25,05,14,15.60
2016,08,25,05,15,15.50
2016,08,25,05,16,15.50
2016,08,25,05,17,15.40
2016,08,25,05,18,15.40
2016,08,25,05,19,15.40
2016,08,25,05,20,15.40
2016,08,25,05,21,15.30
2016,08,25,05,22,15.30
2016,08,25,05,23,15.30
2016,08,25,05,24,15.30
2016,08,25,05,25,15.20
2016,08,25,05,26,15.20
2016,08,25,05,27,15.20
2016,08,25,05,28,15.10
2016,08,25,05,29,15.10
2016,08,25,05,30,15.10
2016,08,25,05,31,15.10
2016,08,25,05,32,15.00
2016,08,25,05,33,15.00
2016,08,25,05,34,15.00
2016,08,25,05,35,14.90
2016,08,25,05,36,14.90
2016,08,25,05,37,14.90
2016,08,25,05,38,14.90
2016,08,25,05,39,14.80
2016,08,25,05,40,14.80
2016,08,25,05,41,14.80
2016,08,25,05,42,14.80
2016,08,25,05,43,14.70
2016,08,25,05,44,14.70
2016,08,25,05,45,14.70
2016,08,25,05,46,14.70
2016,08,25,05,47,14.60
2016,08,25,05,48,14.60
2016,08,25,05,49,14.60
2016,08,25,05,50,14.60
2016,08,25,05,51,14.60
2016,08,25,05,52,14.50
2016,08,25,05,53,14.50
2016,08,25,05,54,14.50
2016,08,25,05,55,14.50
2016,08,25,05,56,14.50
2016,08,25,05,57,14.50
2016,08,25,05,58,14.40
2016,08,25,05,59,14.40
2016,08,25,06,00,14.40
2016,08,25,06,01,14.40
2016,08,25,06,02,14.40
2016,08,25,06,03,14.40
2016,08,25,06,04,14.40
2016,08,25,06,05,14.40
2016,08,25,06,06,14.40
2016,08,25,06,07,14.40
2016,08,25,06,08,14.40
2016,08,25,06,09,14.40
2016,08,25,06,10,14.30
2016,08,25,06,11,14.30
2016,08,25,06,12,14.30
2016,08,25,06,13,14.30
2016,08,25,06,14,14.30
2016,08,25,06,15,14.30
2016,08,25,06,16,14.30
2016,08,25,06,17,14.30
2016,08,25,06,18,14.30
2016,08,25,06,19,14.30
2016,08,25,06,20,14.30
2016,08,25,06,21,14.30
2016,08,25,06,22,14.30
2016,08,25,06,23,14.20
2016,08,25,06,24,14.20
2016,08,25,06,25,14.20
2016,08,25,06,26,14.20
2016,08,25,06,27,14.20
2016,08,25,06,28,14.20
2016,08,25,06,29,14.20
2016,08,25,06,30,14.20
2016,08,25,06,31,14.20
2016,08,25,06,32,14.20
2016,08,25,06,33,14.10
2016,08,25,06,34,14.10
2016,08,25,06,35,14.10
2016,08,25,06,36,14.10
2016,08,25,06,37,14.10
2016,08,25,06,38,14.10
2016,08,25,06,39,14.10
2016,08,25,06,40,14.10
2016,08,25,06,41,14.10
2016,08,25,06,42,14.00
2016,08,25,06,43,14.00
2016,08,25,06,44,14.00
2016,08,25,06,45,14.00
2016,08,25,06,46,14.00
2016,08,25,06,47,14.00
2016,08,25,06,48,14.00
2016,08,25,06,49,14.00
2016,08,25,06,50,14.10
2016,08,25,06,51,14.10
2016,08,25,06,52,14.10
2016,08,25,06,53,14.10
2016,08,25,06,54,14.10
2016,08,25,06,55,14.10
2016,08,25,06,56,14.10
2016,08,25,06,57,14.20
2016,08,25,06,58,14.20
2016,08,25,06,59,14.20
2016,08,25,07,00,14.10
2016,08,25,07,01,14.10
2016,08,25,07,02,14.10
2016,08,25,07,03,14.20
2016,08,25,07,04,14.20
2016,08,25,07,05,14.20
2016,08,25,07,06,14.20
2016,08,25,07,07,14.20
2016,08,25,07,08,14.20
2016,08,25,07,09,14.20
2016,08,25,07,10,14.20
2016,08,25,07,11,14.20
2016,08,25,07,12,14.20
2016,08,25,07,13,14.30
2016,08,25,07,14,14.30
2016,08,25,07,15,14.30
2016,08,25,07,16,14.30
2016,08,25,07,17,14.40
2016,08,25,07,18,14.40
2016,08,25,07,19,14.40
2016,08,25,07,20,14.40
2016,08,25,07,21,14.50
2016,08,25,07,22,14.50
2016,08,25,07,23,14.60
2016,08,25,07,24,14.60
2016,08,25,07,25,14.60
2016,08,25,07,26,14.60
2016,08,25,07,27,14.60
2016,08,25,07,28,14.70
2016,08,25,07,29,14.70
2016,08,25,07,30,14.70
2016,08,25,07,31,14.70
2016,08,25,07,32,14.80
2016,08,25,07,33,14.80
2016,08,25,07,34,14.90
2016,08,25,07,35,15.00
2016,08,25,07,36,15.00
2016,08,25,07,37,15.10
2016,08,25,07,38,15.20
2016,08,25,07,39,15.30
2016,08,25,07,40,15.40
2016,08,25,07,41,15.40
2016,08,25,07,42,15.50
2016,08,25,07,43,15.60
2016,08,25,07,44,15.70
2016,08,25,07,45,15.90
2016,08,25,07,46,16.00
2016,08,25,07,47,16.10
2016,08,25,07,48,16.20
2016,08,25,07,49,16.40
2016,08,25,07,50,16.40
2016,08,25,07,51,16.50
2016,08,25,07,52,16.60
2016,08,25,07,53,16.70
2016,08,25,07,54,16.80
2016,08,25,07,55,16.90
2016,08,25,07,56,17.00
2016,08,25,07,57,17.10
2016,08,25,07,58,17.20
2016,08,25,07,59,17.30
2016,08,25,08,00,17.40
2016,08,25,08,01,17.50
2016,08,25,08,02,17.60
2016,08,25,08,03,17.70
2016,08,25,08,04,17.80
2016,08,25,08,05,17.90
2016,08,25,08,06,18.00
2016,08,25,08,07,18.10
2016,08,25,08,08,18.20
2016,08,25,08,09,18.20
2016,08,25,08,10,18.30
2016,08,25,08,11,18.30
2016,08,25,08,12,18.40
2016,08,25,08,13,18.40
2016,08,25,08,14,18.50
2016,08,25,08,15,18.60
2016,08,25,08,16,18.70
2016,08,25,08,17,18.70
2016,08,25,08,18,18.80
2016,08,25,08,19,18.80
2016,08,25,08,20,18.80
2016,08,25,08,21,18.90
2016,08,25,08,22,18.90
2016,08,25,08,23,19.00
2016,08,25,08,24,19.00
2016,08,25,08,25,19.10
2016,08,25,08,26,19.20
2016,08,25,08,27,19.20
2016,08,25,08,28,19.20
2016,08,25,08,29,19.20
2016,08,25,08,30,19.20
2016,08,25,08,31,19.10
2016,08,25,08,32,19.00
2016,08,25,08,33,18.90
2016,08,25,08,34,18.90
2016,08,25,08,35,18.80
2016,08,25,08,36,18.80
2016,08,25,08,37,18.70
2016,08,25,08,38,18.70
2016,08,25,08,39,18.60
2016,08,25,08,40,18.60
2016,08,25,08,41,18.60
2016,08,25,08,42,18.60
2016,08,25,08,43,18.50
2016,08,25,08,44,18.50
2016,08,25,08,45,18.40
2016,08,25,08,46,18.40
2016,08,25,08,47,18.40
2016,08,25,08,48,18.40
2016,08,25,08,49,18.40
2016,08,25,08,50,18.40
2016,08,25,08,51,18.50
2016,08,25,08,52,18.50
2016,08,25,08,53,18.60
2016,08,25,08,54,18.70
2016,08,25,08,55,18.80
2016,08,25,08,56,18.80
2016,08,25,08,57,18.90
2016,08,25,08,58,18.90
2016,08,25,08,59,19.00
2016,08,25,09,00,19.10
2016,08,25,09,01,19.20
2016,08,25,09,02,19.30
2016,08,25,09,03,19.40
2016,08,25,09,04,19.50
2016,08,25,09,05,19.60
2016,08,25,09,06,19.70
2016,08,25,09,07,19.80
2016,08,25,09,08,19.90
2016,08,25,09,09,20.00
2016,08,25,09,10,20.20
2016,08,25,09,11,20.30
2016,08,25,09,12,20.40
2016,08,25,09,13,20.50
2016,08,25,09,14,20.70
2016,08,25,09,15,20.70
2016,08,25,09,16,20.90
2016,08,25,09,17,21.00
2016,08,25,09,18,21.10
2016,08,25,09,19,21.20
2016,08,25,09,20,21.30
2016,08,25,09,21,21.30
2016,08,25,09,22,21.40
2016,08,25,09,23,21.40
2016,08,25,09,24,21.40
2016,08,25,09,25,21.40
2016,08,25,09,26,21.40
2016,08,25,09,27,21.40
2016,08,25,09,28,21.50
2016,08,25,09,29,21.50
2016,08,25,09,30,21.60
2016,08,25,09,31,21.70
2016,08,25,09,32,21.70
2016,08,25,09,33,21.80
2016,08,25,09,34,21.90
2016,08,25,09,35,22.00
2016,08,25,09,36,22.00
2016,08,25,09,37,22.10
2016,08,25,09,38,22.20
2016,08,25,09,39,22.30
2016,08,25,09,40,22.40
2016,08,25,09,41,22.50
2016,08,25,09,42,22.60
2016,08,25,09,43,22.70
2016,08,25,09,44,22.80
2016,08,25,09,45,22.80
2016,08,25,09,46,22.80
2016,08,25,09,47,22.90
2016,08,25,09,48,22.90
2016,08,25,09,49,22.90
2016,08,25,09,50,22.90
2016,08,25,09,51,22.90
2016,08,25,09,52,23.00
2016,08,25,09,53,23.10
2016,08,25,09,54,23.10
2016,08,25,09,55,23.20
2016,08,25,09,56,23.20
2016,08,25,09,57,23.30
2016,08,25,09,58,23.30
2016,08,25,09,59,23.30
2016,08,25,10,00,23.30
2016,08,25,10,01,23.30
2016,08,25,10,02,23.40
2016,08,25,10,03,23.40
2016,08,25,10,04,23.40
2016,08,25,10,05,23.40
2016,08,25,10,06,23.40
2016,08,25,10,07,23.50
2016,08,25,10,08,23.50
2016,08,25,10,09,23.50
2016,08,25,10,10,23.50
2016,08,25,10,11,23.60
2016,08,25,10,12,23.60
2016,08,25,10,13,23.60
2016,08,25,10,14,23.70
2016,08,25,10,15,23.70
2016,08,25,10,16,23.80
2016,08,25,10,17,23.80
2016,08,25,10,18,23.90
2016,08,25,10,19,23.90
2016,08,25,10,20,23.90
2016,08,25,10,21,24.00
2016,08,25,10,22,24.00
2016,08,25,10,23,24.00
2016,08,25,10,24,24.00
2016,08,25,10,25,24.10
2016,08,25,10,26,24.20
2016,08,25,10,27,24.20
2016,08,25,10,28,24.30
2016,08,25,10,29,24.40
2016,08,25,10,30,24.40
2016,08,25,10,31,24.50
2016,08,25,10,32,24.60
2016,08,25,10,33,24.70
2016,08,25,10,34,24.80
2016,08,25,10,35,24.80
2016,08,25,10,36,24.80
2016,08,25,10,37,24.80
2016,08,25,10,38,24.80
2016,08,25,10,39,24.80
2016,08,25,10,40,24.70
2016,08,25,10,41,24.70
2016,08,25,10,42,24.70
2016,08,25,10,43,24.60
2016,08,25,10,44,24.60
2016,08,25,10,45,24.50
2016,08,25,10,46,24.50
2016,08,25,10,47,24.50
2016,08,25,10,48,24.50
2016,08,25,10,49,24.50
2016,08,25,10,50,24.40
2016,08,25,10,51,24.40
2016,08,25,10,52,24.30
2016,08,25,10,53,24.10
2016,08,25,10,54,24.00
2016,08,25,10,55,23.80
2016,08,25,10,56,23.70
2016,08,25,10,57,23.50
2016,08,25,10,58,23.40
2016,08,25,10,59,23.30
2016,08,25,11,00,23.20
2016,08,25,11,01,23.20
2016,08,25,11,02,23.10
2016,08,25,11,03,23.00
2016,08,25,11,04,23.00
2016,08,25,11,05,22.90
2016,08,25,11,06,22.80
2016,08,25,11,07,22.70
2016,08,25,11,08,22.60
2016,08,25,11,09,22.50
2016,08,25,11,10,22.40
2016,08,25,11,11,22.30
2016,08,25,11,12,22.30
2016,08,25,11,13,22.30
2016,08,25,11,14,22.20
2016,08,25,11,15,22.20
2016,08,25,11,16,22.20
2016,08,25,11,17,22.20
2016,08,25,11,18,22.20
2016,08,25,11,19,22.20
2016,08,25,11,20,22.20
2016,08,25,11,21,22.10
2016,08,25,11,22,22.10
2016,08,25,11,23,22.10
2016,08,25,11,24,22.10
2016,08,25,11,25,22.00
2016,08,25,11,26,22.00
2016,08,25,11,27,22.00
2016,08,25,11,28,22.00
2016,08,25,11,29,22.10
2016,08,25,11,30,22.10
2016,08,25,11,31,22.20
2016,08,25,11,32,22.20
2016,08,25,11,33,22.30
2016,08,25,11,34,22.40
2016,08,25,11,35,22.40
2016,08,25,11,36,22.50
2016,08,25,11,37,22.60
2016,08,25,11,38,22.60
2016,08,25,11,39,22.60
2016,08,25,11,40,22.60
2016,08,25,11,41,22.60
2016,08,25,11,42,22.60
2016,08,25,11,43,22.70
2016,08,25,11,44,22.70
2016,08,25,11,45,22.70
2016,08,25,11,46,22.70
2016,08,25,11,47,22.80
2016,08,25,11,48,22.80
2016,08,25,11,49,22.80
2016,08,25,11,50,22.80
2016,08,25,11,51,22.90
2016,08,25,11,52,23.00
2016,08,25,11,53,23.00
2016,08,25,11,54,23.10
2016,08,25,11,55,23.20
2016,08,25,11,56,23.20
2016,08,25,11,57,23.30
2016,08,25,11,58,23.40
2016,08,25,11,59,23.40
2016,08,25,12,00,23.50
2016,08,25,12,01,23.50
2016,08,25,12,02,23.60
2016,08,25,12,03,23.50
2016,08,25,12,04,23.50
2016,08,25,12,05,23.50
2016,08,25,12,06,23.40
2016,08,25,12,07,23.40
2016,08,25,12,08,23.40
2016,08,25,12,09,23.30
2016,08,25,12,10,23.30
2016,08,25,12,11,23.30
2016,08,25,12,12,23.30
2016,08,25,12,13,23.30
2016,08,25,12,14,23.30
2016,08,25,12,15,23.30
2016,08,25,12,16,23.30
2016,08,25,12,17,23.40
2016,08,25,12,18,23.40
2016,08,25,12,19,23.40
2016,08,25,12,20,23.50
2016,08,25,12,21,23.50
2016,08,25,12,22,23.60
2016,08,25,12,23,23.60
2016,08,25,12,24,23.60
2016,08,25,12,25,23.60
2016,08,25,12,26,23.60
2016,08,25,12,27,23.60
2016,08,25,12,28,23.60
2016,08,25,12,29,23.70
2016,08,25,12,30,23.70
2016,08,25,12,31,23.70
2016,08,25,12,32,23.80
2016,08,25,12,33,23.90
2016,08,25,12,34,24.00
2016,08,25,12,35,24.10
2016,08,25,12,36,24.20
2016,08,25,12,37,24.30
2016,08,25,12,38,24.40
2016,08,25,12,39,24.50
2016,08,25,12,40,24.60
2016,08,25,12,41,24.70
2016,08,25,12,42,24.80
2016,08,25,12,43,24.90
2016,08,25,12,44,24.90
2016,08,25,12,45,25.00
2016,08,25,12,46,25.00
2016,08,25,12,47,25.00
2016,08,25,12,48,24.90
2016,08,25,12,49,24.90
2016,08,25,12,50,24.80
2016,08,25,12,51,24.70
2016,08,25,12,52,24.70
2016,08,25,12,53,24.60
2016,08,25,12,54,24.60
2016,08,25,12,55,24.60
2016,08,25,12,56,24.60
2016,08,25,12,57,24.70
2016,08,25,12,58,24.80
2016,08,25,12,59,24.90
2016,08,25,13,00,25.00
2016,08,25,13,01,25.10
2016,08,25,13,02,25.30
2016,08,25,13,03,25.40
2016,08,25,13,04,25.50
2016,08,25,13,05,25.70
2016,08,25,13,06,25.70
2016,08,25,13,07,25.90
2016,08,25,13,08,25.90
2016,08,25,13,09,26.00
2016,08,25,13,10,26.10
2016,08,25,13,11,26.10
2016,08,25,13,12,26.20
2016,08,25,13,13,26.30
2016,08,25,13,14,26.30
2016,08,25,13,15,26.40
2016,08,25,13,16,26.50
2016,08,25,13,17,26.50
2016,08,25,13,18,26.60
2016,08,25,13,19,26.70
2016,08,25,13,20,26.70
2016,08,25,13,21,26.80
2016,08,25,13,22,26.80
2016,08,25,13,23,26.90
2016,08,25,13,24,27.00
2016,08,25,13,25,27.10
2016,08,25,13,26,27.10
2016,08,25,13,27,27.10
2016,08,25,13,28,27.10
2016,08,25,13,29,27.10
2016,08,25,13,30,27.10
2016,08,25,13,31,27.10
2016,08,25,13,32,27.10
2016,08,25,13,33,27.20
2016,08,25,13,34,27.20
2016,08,25,13,35,27.20
2016,08,25,13,36,27.20
2016,08,25,13,37,27.20
2016,08,25,13,38,27.20
2016,08,25,13,39,27.20
2016,08,25,13,40,27.20
2016,08,25,13,41,27.20
2016,08,25,13,42,27.20
2016,08,25,13,43,27.20
2016,08,25,13,44,27.20
2016,08,25,13,45,27.20
2016,08,25,13,46,27.20
2016,08,25,13,47,27.20
2016,08,25,13,48,27.20
2016,08,25,13,49,27.20
2016,08,25,13,50,27.20
2016,08,25,13,51,27.30
2016,08,25,13,52,27.30
2016,08,25,13,53,27.30
2016,08,25,13,54,27.30
2016,08,25,13,55,27.30
2016,08,25,13,56,27.30
2016,08,25,13,57,27.40
2016,08,25,13,58,27.40
2016,08,25,13,59,27.40
2016,08,25,14,00,27.50
2016,08,25,14,01,27.50
2016,08,25,14,02,27.50
2016,08,25,14,03,27.50
2016,08,25,14,04,27.50
2016,08,25,14,05,27.60
2016,08,25,14,06,27.60
2016,08,25,14,07,27.60
2016,08,25,14,08,27.70
2016,08,25,14,09,27.70
2016,08,25,14,10,27.70
2016,08,25,14,11,27.80
2016,08,25,14,12,27.80
2016,08,25,14,13,27.80
2016,08,25,14,14,27.90
2016,08,25,14,15,27.90
2016,08,25,14,16,27.80
2016,08,25,14,17,27.80
2016,08,25,14,18,27.80
2016,08,25,14,19,27.80
2016,08,25,14,20,27.80
2016,08,25,14,21,27.80
2016,08,25,14,22,27.80
2016,08,25,14,23,27.80
2016,08,25,14,24,27.80
2016,08,25,14,25,27.70
2016,08,25,14,26,27.70
2016,08,25,14,27,27.70
2016,08,25,14,28,27.70
2016,08,25,14,29,27.70
2016,08,25,14,30,27.70
2016,08,25,14,31,27.70
2016,08,25,14,32,27.80
2016,08,25,14,33,27.80
2016,08,25,14,34,27.80
2016,08,25,14,35,27.90
2016,08,25,14,36,27.90
2016,08,25,14,37,27.90
2016,08,25,14,38,28.00
2016,08,25,14,39,28.00
2016,08,25,14,40,28.00
2016,08,25,14,41,28.10
2016,08,25,14,42,28.10
2016,08,25,14,43,28.20
2016,08,25,14,44,28.20
2016,08,25,14,45,28.20
2016,08,25,14,46,28.20
2016,08,25,14,47,28.20
2016,08,25,14,48,28.20
2016,08,25,14,49,28.20
2016,08,25,14,50,28.10
2016,08,25,14,51,28.00
2016,08,25,14,52,27.90
2016,08,25,14,53,27.80
2016,08,25,14,54,27.80
2016,08,25,14,55,27.70
2016,08,25,14,56,27.60
2016,08,25,14,57,27.60
2016,08,25,14,58,27.50
2016,08,25,14,59,27.40
2016,08,25,15,00,27.30
2016,08,25,15,01,27.20
2016,08,25,15,02,27.10
2016,08,25,15,03,27.00
2016,08,25,15,04,26.90
2016,08,25,15,05,26.80
2016,08,25,15,06,26.80
2016,08,25,15,07,26.80
2016,08,25,15,08,26.70
2016,08,25,15,09,26.70
2016,08,25,15,10,26.60
2016,08,25,15,11,26.60
2016,08,25,15,12,26.50
2016,08,25,15,13,26.40
2016,08,25,15,14,26.30
2016,08,25,15,15,26.30
2016,08,25,15,16,26.30
2016,08,25,15,17,26.20
2016,08,25,15,18,26.20
2016,08,25,15,19,26.10
2016,08,25,15,20,26.10
2016,08,25,15,21,26.00
2016,08,25,15,22,26.00
2016,08,25,15,23,25.90
2016,08,25,15,24,25.90
2016,08,25,15,25,25.90
2016,08,25,15,26,25.90
2016,08,25,15,27,25.90
2016,08,25,15,28,26.00
2016,08,25,15,29,26.00
2016,08,25,15,30,26.10
2016,08,25,15,31,26.10
2016,08,25,15,32,26.10
2016,08,25,15,33,26.20
2016,08,25,15,34,26.20
2016,08,25,15,35,26.20
2016,08,25,15,36,26.20
2016,08,25,15,37,26.20
2016,08,25,15,38,26.20
2016,08,25,15,39,26.20
2016,08,25,15,40,26.30
2016,08,25,15,41,26.30
2016,08,25,15,42,26.40
2016,08,25,15,43,26.50
2016,08,25,15,44,26.50
2016,08,25,15,45,26.60
2016,08,25,15,46,26.60
2016,08,25,15,47,26.60
2016,08,25,15,48,26.60
2016,08,25,15,49,26.60
2016,08,25,15,50,26.60
2016,08,25,15,51,26.60
2016,08,25,15,52,26.60
2016,08,25,15,53,26.60
2016,08,25,15,54,26.70
2016,08,25,15,55,26.70
2016,08,25,15,56,26.70
2016,08,25,15,57,26.70
2016,08,25,15,58,26.70
2016,08,25,15,59,26.80
2016,08,25,16,00,26.80
2016,08,25,16,01,26.80
2016,08,25,16,02,26.80
2016,08,25,16,03,26.80
2016,08,25,16,04,26.90
2016,08,25,16,05,26.90
2016,08,25,16,06,26.90
2016,08,25,16,07,26.90
2016,08,25,16,08,27.00
2016,08,25,16,09,27.00
2016,08,25,16,10,27.10
2016,08,25,16,11,27.10
2016,08,25,16,12,27.10
2016,08,25,16,13,27.10
2016,08,25,16,14,27.20
2016,08,25,16,15,27.20
2016,08,25,16,16,27.20
2016,08,25,16,17,27.30
2016,08,25,16,18,27.40
2016,08,25,16,19,27.60
2016,08,25,16,20,27.70
2016,08,25,16,21,27.80
2016,08,25,16,22,27.80
2016,08,25,16,23,27.60
2016,08,25,16,24,27.40
2016,08,25,16,25,27.10
2016,08,25,16,26,26.90
2016,08,25,16,27,26.70
2016,08,25,16,28,26.60
2016,08,25,16,29,26.50
2016,08,25,16,30,26.40
2016,08,25,16,31,26.30
2016,08,25,16,32,26.20
2016,08,25,16,33,26.10
2016,08,25,16,34,26.10
2016,08,25,16,35,26.00
2016,08,25,16,36,26.00
2016,08,25,16,37,25.90
2016,08,25,16,38,25.90
2016,08,25,16,39,25.90
2016,08,25,16,40,25.90
2016,08,25,16,41,25.80
2016,08,25,16,42,25.70
2016,08,25,16,43,25.70
2016,08,25,16,44,25.70
2016,08,25,16,45,25.70
2016,08,25,16,46,25.80
2016,08,25,16,47,25.80
2016,08,25,16,48,25.80
2016,08,25,16,49,25.80
2016,08,25,16,50,25.80
2016,08,25,16,51,25.90
2016,08,25,16,52,25.90
2016,08,25,16,53,25.90
2016,08,25,16,54,26.00
2016,08,25,16,55,26.00
2016,08,25,16,56,26.00
2016,08,25,16,57,26.10
2016,08,25,16,58,26.20
2016,08,25,16,59,26.30
2016,08,25,17,00,26.40
2016,08,25,17,01,26.60
2016,08,25,17,02,26.70
2016,08,25,17,03,26.80
2016,08,25,17,04,26.90
2016,08,25,17,05,27.00
2016,08,25,17,06,27.20
2016,08,25,17,07,27.30
2016,08,25,17,08,27.40
2016,08,25,17,09,27.50
2016,08,25,17,10,27.60
2016,08,25,17,11,27.60
2016,08,25,17,12,27.60
2016,08,25,17,13,27.70
2016,08,25,17,14,27.70
2016,08,25,17,15,27.80
2016,08,25,17,16,27.80
2016,08,25,17,17,27.90
2016,08,25,17,18,27.90
2016,08,25,17,19,28.00